When you browse on this site, cookies collect data to enhance your experience and personalize the content and advertising you see.
Visit our Privacy Policy to learn more. By continuing to use the site, you agree to this use of cookies and data.
  • Em Portugal
  • Lista de países
  • Para 7 dias
  • Temperatura da água
  • Mapas de satélite
  • Mapa do tempo
  • Widgets de tempo
  • user-avatar
    Iniciar Sessão

    Previsão horária em Gisiel

    Hoje, 18 Dezembro, Terça-feira

    Tempo Temperatura Precipitação Vento Pressão Humidade
    00:00 -3°C° 0 mm 1 m/s 762 mmHg 90%
    01:00 -3°C° 0 mm 1 m/s 763 mmHg 90%
    02:00 -4°C° 0 mm 1 m/s 763 mmHg 90%
    03:00 -4°C° 0 mm 1 m/s 763 mmHg 90%
    04:00 -4°C° 0 mm 1 m/s 763 mmHg 90%
    05:00 -4°C° 0 mm 1 m/s 763 mmHg 90%
    06:00 -4°C° 0 mm 1 m/s 763 mmHg 90%
    07:00 -4°C° 0 mm 1 m/s 764 mmHg 89%
    08:00 -3°C° 0 mm 1 m/s 764 mmHg 88%
    09:00 -3°C° 0 mm 1 m/s 764 mmHg 86%
    10:00 -3°C° 0 mm 1 m/s 764 mmHg 84%
    11:00 -2°C° 0 mm 1 m/s 764 mmHg 82%
    12:00 -4°C° 0 mm 2 m/s 764 mmHg 81%
    13:00 -1°C° 0 mm 1 m/s 764 mmHg 82%
    14:00 -3°C° 0 mm 2 m/s 764 mmHg 84%
    15:00 -4°C° 0 mm 2 m/s 764 mmHg 87%
    16:00 -4°C° 0 mm 2 m/s 764 mmHg 89%
    17:00 -4°C° 0 mm 2 m/s 764 mmHg 89%
    18:00 -5°C° 0 mm 3 m/s 764 mmHg 89%
    19:00 -5°C° 0 mm 3 m/s 764 mmHg 90%
    20:00 -4°C° 0 mm 3 m/s 764 mmHg 90%
    21:00 -4°C° 0 mm 3 m/s 764 mmHg 91%
    22:00 -4°C° 0 mm 3 m/s 764 mmHg 92%
    23:00 -2°C° 0 mm 3 m/s 764 mmHg 92%

    Amanhã, 19 Dezembro, Quarta-feira

    Tempo Temperatura Precipitação Vento Pressão Humidade
    00:00 -2°C° 0 mm 3 m/s 764 mmHg 92%
    01:00 -2°C° 0 mm 3 m/s 764 mmHg 93%
    02:00 -3°C° 0 mm 4 m/s 764 mmHg 93%
    03:00 -3°C° 0 mm 4 m/s 764 mmHg 93%
    04:00 -3°C° 0 mm 4 m/s 764 mmHg 93%
    05:00 -3°C° 0 mm 4 m/s 763 mmHg 93%
    06:00 -3°C° 0 mm 4 m/s 763 mmHg 93%
    07:00 -3°C° 0 mm 4 m/s 763 mmHg 93%
    08:00 -4°C° 0 mm 5 m/s 763 mmHg 92%
    09:00 -4°C° 0 mm 5 m/s 763 mmHg 90%
    10:00 -4°C° 0 mm 5 m/s 763 mmHg 88%
    11:00 -4°C° 0 mm 5 m/s 763 mmHg 86%
    12:00 -4°C° 0 mm 5 m/s 762 mmHg 84%
    13:00 -2°C° 0 mm 5 m/s 762 mmHg 82%
    14:00 -4°C° 0 mm 5 m/s 761 mmHg 84%
    15:00 -5°C° 0 mm 6 m/s 761 mmHg 85%
    16:00 -5°C° 0 mm 6 m/s 761 mmHg 86%
    17:00 -6°C° 0 mm 6 m/s 761 mmHg 85%
    18:00 -6°C° 0 mm 6 m/s 760 mmHg 84%
    19:00 -6°C° 0 mm 6 m/s 760 mmHg 83%
    20:00 -6°C° 0 mm 6 m/s 760 mmHg 83%
    21:00 -6°C° 0 mm 6 m/s 760 mmHg 83%
    22:00 -6°C° 0 mm 6 m/s 760 mmHg 83%
    23:00 -6°C° 0 mm 6 m/s 759 mmHg 83%

    Depois de amanhã, 20 Dezembro, Quinta-feira

    Tempo Temperatura Precipitação Vento Pressão Humidade
    00:00 -6°C° 0 mm 6 m/s 759 mmHg 83%
    01:00 -6°C° 0 mm 6 m/s 759 mmHg 83%
    02:00 -8°C° 0 mm 6 m/s 759 mmHg 84%
    03:00 -8°C° 0 mm 6 m/s 759 mmHg 84%
    04:00 -7°C° 0 mm 5 m/s 759 mmHg 85%
    05:00 -7°C° 0 mm 5 m/s 758 mmHg 85%
    06:00 -7°C° 0 mm 5 m/s 758 mmHg 86%
    07:00 -7°C° 0 mm 5 m/s 758 mmHg 86%
    08:00 -6°C° 0 mm 5 m/s 758 mmHg 86%
    09:00 -6°C° 0 mm 5 m/s 758 mmHg 85%
    10:00 -6°C° 0 mm 5 m/s 758 mmHg 84%
    11:00 -6°C° 0 mm 5 m/s 758 mmHg 83%
    12:00 -5°C° 0 mm 5 m/s 758 mmHg 82%
    13:00 -5°C° 0 mm 5 m/s 757 mmHg 81%
    14:00 -4°C° 0 mm 4 m/s 757 mmHg 83%
    15:00 -4°C° 0 mm 4 m/s 757 mmHg 84%
    16:00 -4°C° 0 mm 4 m/s 757 mmHg 85%
    17:00 -4°C° 0.1 mm 4 m/s 757 mmHg 86%
    18:00 -4°C° 0.1 mm 4 m/s 757 mmHg 87%
    19:00 -4°C° 0.1 mm 4 m/s 756 mmHg 87%
    20:00 -4°C° 0.2 mm 4 m/s 756 mmHg 88%
    21:00 -4°C° 0.2 mm 4 m/s 756 mmHg 89%
    22:00 -4°C° 0.2 mm 4 m/s 756 mmHg 90%
    23:00 -4°C° 0.3 mm 4 m/s 756 mmHg 91%

    21 Dezembro, Sexta-feira

    Tempo Temperatura Precipitação Vento Pressão Humidade
    00:00 -3°C° 0.3 mm 4 m/s 755 mmHg 92%
    01:00 -3°C° 0.3 mm 4 m/s 755 mmHg 93%
    02:00 -3°C° 0.3 mm 4 m/s 755 mmHg 94%
    03:00 -3°C° 0.3 mm 4 m/s 755 mmHg 95%
    04:00 -2°C° 0.3 mm 3 m/s 754 mmHg 95%
    05:00 -1°C° 0.1 mm 3 m/s 754 mmHg 96%
    06:00 -1°C° 0.1 mm 3 m/s 754 mmHg 96%
    07:00 -1°C° 0.1 mm 3 m/s 754 mmHg 97%
    08:00 0°C° 0 mm 3 m/s 754 mmHg 97%
    09:00 -1°C° 0 mm 4 m/s 754 mmHg 97%
    10:00 -1°C° 0 mm 4 m/s 754 mmHg 97%
    11:00 -1°C° 0 mm 4 m/s 753 mmHg 97%
    12:00 0°C° 0 mm 3 m/s 753 mmHg 97%
    13:00 0°C° 0 mm 3 m/s 753 mmHg 97%
    14:00 0°C° 0 mm 3 m/s 752 mmHg 97%
    15:00 -1°C° 0 mm 4 m/s 752 mmHg 96%
    16:00 -1°C° 0 mm 4 m/s 752 mmHg 96%
    17:00 -1°C° 0 mm 4 m/s 751 mmHg 96%
    18:00 -1°C° 0 mm 4 m/s 751 mmHg 95%
    19:00 -1°C° 0 mm 5 m/s 750 mmHg 95%
    20:00 -1°C° 0.1 mm 5 m/s 749 mmHg 94%
    21:00 -1°C° 0.1 mm 5 m/s 748 mmHg 94%
    22:00 -1°C° 0.1 mm 5 m/s 748 mmHg 93%
    23:00 -1°C° 0.4 mm 5 m/s 747 mmHg 93%

    22 Dezembro, Sábado

    Tempo Temperatura Precipitação Vento Pressão Humidade
    00:00 -2°C° 0.4 mm 6 m/s 746 mmHg 93%
    01:00 -2°C° 0.4 mm 6 m/s 745 mmHg 93%
    02:00 -1°C° 0.7 mm 5 m/s 744 mmHg 94%
    03:00 0°C° 0.7 mm 5 m/s 744 mmHg 95%
    04:00 0°C° 0.7 mm 4 m/s 743 mmHg 96%
    05:00 0°C° 0.3 mm 5 m/s 744 mmHg 96%
    06:00 +1°C° 0.3 mm 5 m/s 744 mmHg 95%
    07:00 +1°C° 0.3 mm 5 m/s 744 mmHg 95%
    08:00 +1°C° 0.1 mm 6 m/s 744 mmHg 95%
    09:00 +2°C° 0.1 mm 6 m/s 744 mmHg 95%
    10:00 +2°C° 0.1 mm 6 m/s 745 mmHg 95%
    11:00 +2°C° 0 mm 6 m/s 744 mmHg 95%
    12:00 +2°C° 0 mm 6 m/s 744 mmHg 95%
    13:00 +2°C° 0 mm 5 m/s 744 mmHg 95%
    14:00 +2°C° 0.2 mm 5 m/s 744 mmHg 96%
    15:00 +2°C° 0.2 mm 5 m/s 744 mmHg 96%
    16:00 +1°C° 0.2 mm 4 m/s 744 mmHg 97%
    17:00 +1°C° 0.7 mm 4 m/s 743 mmHg 97%
    18:00 +1°C° 0.7 mm 4 m/s 743 mmHg 97%
    19:00 +1°C° 0.7 mm 4 m/s 743 mmHg 97%
    20:00 +1°C° 0.2 mm 4 m/s 743 mmHg 96%
    21:00 +1°C° 0.2 mm 4 m/s 743 mmHg 95%
    22:00 +1°C° 0.2 mm 5 m/s 744 mmHg 94%
    23:00 +1°C° 0.1 mm 5 m/s 744 mmHg 94%

    23 Dezembro, Domingo

    Tempo Temperatura Precipitação Vento Pressão Humidade
    00:00 +1°C° 0.1 mm 5 m/s 744 mmHg 93%
    01:00 +1°C° 0.1 mm 5 m/s 744 mmHg 93%
    02:00 +1°C° 0.4 mm 5 m/s 744 mmHg 92%
    03:00 +2°C° 0.4 mm 6 m/s 744 mmHg 91%
    04:00 +2°C° 0.4 mm 6 m/s 745 mmHg 91%
    05:00 +2°C° 0.3 mm 6 m/s 745 mmHg 91%
    06:00 +2°C° 0.3 mm 6 m/s 746 mmHg 92%
    07:00 +2°C° 0.3 mm 6 m/s 746 mmHg 93%
    08:00 +2°C° 0.2 mm 5 m/s 747 mmHg 93%
    09:00 +2°C° 0.2 mm 5 m/s 748 mmHg 93%
    10:00 +2°C° 0.2 mm 5 m/s 749 mmHg 93%
    11:00 +1°C° 0.1 mm 5 m/s 749 mmHg 93%
    12:00 +1°C° 0.1 mm 4 m/s 750 mmHg 92%
    13:00 +1°C° 0.1 mm 4 m/s 750 mmHg 92%
    14:00 +2°C° 0 mm 3 m/s 750 mmHg 92%
    15:00 +2°C° 0 mm 3 m/s 751 mmHg 93%
    16:00 +2°C° 0 mm 2 m/s 751 mmHg 93%
    17:00 +2°C° 0 mm 2 m/s 751 mmHg 93%
    18:00 +1°C° 0 mm 2 m/s 751 mmHg 93%
    19:00 +2°C° 0 mm 1 m/s 751 mmHg 93%
    20:00 +1°C° 0.1 mm 2 m/s 752 mmHg 93%
    21:00 +1°C° 0.1 mm 2 m/s 752 mmHg 92%
    22:00 +1°C° 0.1 mm 2 m/s 752 mmHg 92%
    23:00 +1°C° 0.3 mm 2 m/s 752 mmHg 92%
    Mostrar mais